Time,TemperatureF,DewpointF,PressureIn,WindDirection,WindDirectionDegrees,WindSpeedMPH,WindSpeedGustMPH,Humidity,HourlyPrecipIn,Conditions,Clouds,dailyrainin,SoftwareType,DateUTC
2013-05-15 00:05:00,61.3,48.0,30.04,ENE,70,4.0,7.0,63,0.00,,,0.00,weatherlink.com 1.10,2013-05-15 04:05:00,
2013-05-15 00:20:00,61.1,49.0,30.05,North,360,0.0,8.0,64,0.00,,,0.00,weatherlink.com 1.10,2013-05-15 04:20:00,
2013-05-15 00:36:00,60.9,49.0,30.05,SSW,200,1.0,9.0,64,0.00,,,0.00,weatherlink.com 1.10,2013-05-15 04:36:00,
2013-05-15 00:50:00,61.1,49.0,30.05,North,7,0.0,7.0,64,0.00,,,0.00,weatherlink.com 1.10,2013-05-15 04:50:00,
2013-05-15 01:05:00,61.3,49.0,30.05,ENE,76,0.0,6.0,64,0.00,,,0.00,weatherlink.com 1.10,2013-05-15 05:05:00,
2013-05-15 01:20:00,60.7,49.0,30.05,SE,144,0.0,6.0,65,0.00,,,0.00,weatherlink.com 1.10,2013-05-15 05:20:00,
2013-05-15 01:35:00,61.2,49.0,30.05,East,94,0.0,7.0,64,0.00,,,0.00,weatherlink.com 1.10,2013-05-15 05:35:00,
2013-05-15 01:50:00,61.4,49.0,30.05,East,80,1.0,8.0,63,0.00,,,0.00,weatherlink.com 1.10,2013-05-15 05:50:00,
2013-05-15 02:05:00,60.9,49.0,30.05,East,95,1.0,5.0,65,0.00,,,0.00,weatherlink.com 1.10,2013-05-15 06:05:00,
2013-05-15 02:20:00,60.8,49.0,30.04,East,94,2.0,7.0,65,0.00,,,0.00,weatherlink.com 1.10,2013-05-15 06:20:00,
2013-05-15 02:35:00,60.8,49.0,30.04,ENE,77,1.0,6.0,66,0.00,,,0.00,weatherlink.com 1.10,2013-05-15 06:35:00,
2013-05-15 02:50:00,60.7,49.0,30.05,NE,44,3.0,5.0,66,0.00,,,0.00,weatherlink.com 1.10,2013-05-15 06:50:00,
2013-05-15 03:05:00,60.0,49.0,30.06,East,84,2.0,4.0,68,0.00,,,0.00,weatherlink.com 1.10,2013-05-15 07:05:00,
2013-05-15 03:20:00,60.0,49.0,30.06,East,101,1.0,7.0,68,0.00,,,0.00,weatherlink.com 1.10,2013-05-15 07:20:00,
2013-05-15 03:35:00,59.9,49.0,30.06,NE,56,3.0,4.0,68,0.00,,,0.00,weatherlink.com 1.10,2013-05-15 07:35:00,
2013-05-15 03:50:00,59.6,49.0,30.06,NNW,333,0.0,8.0,68,0.00,,,0.00,weatherlink.com 1.10,2013-05-15 07:50:00,
2013-05-15 04:05:00,59.9,49.0,30.06,NE,41,0.0,5.0,68,0.00,,,0.00,weatherlink.com 1.10,2013-05-15 08:05:00,
2013-05-15 04:20:00,60.1,49.0,30.06,South,191,3.0,10.0,67,0.00,,,0.00,weatherlink.com 1.10,2013-05-15 08:20:00,
2013-05-15 04:35:00,60.6,49.0,30.06,SSE,160,0.0,8.0,66,0.00,,,0.00,weatherlink.com 1.10,2013-05-15 08:35:00,
2013-05-15 04:50:00,60.9,49.0,30.06,NNW,338,0.0,10.0,65,0.00,,,0.00,weatherlink.com 1.10,2013-05-15 08:50:00,
2013-05-15 05:05:00,60.9,48.0,30.06,SSE,167,0.0,6.0,63,0.00,,,0.00,weatherlink.com 1.10,2013-05-15 09:05:00,
2013-05-15 05:21:00,61.1,48.0,30.07,SSW,196,3.0,5.0,63,0.00,,,0.00,weatherlink.com 1.10,2013-05-15 09:21:00,
2013-05-15 05:36:00,61.7,47.0,30.07,South,176,1.0,8.0,59,0.00,,,0.00,weatherlink.com 1.10,2013-05-15 09:36:00,
2013-05-15 05:51:00,61.9,48.0,30.07,NW,326,3.0,6.0,60,0.00,,,0.00,weatherlink.com 1.10,2013-05-15 09:51:00,
2013-05-15 06:06:00,62.0,47.0,30.07,ENE,74,1.0,7.0,59,0.00,,,0.00,weatherlink.com 1.10,2013-05-15 10:06:00,
2013-05-15 06:21:00,62.0,48.0,30.08,South,174,3.0,7.0,60,0.00,,,0.00,weatherlink.com 1.10,2013-05-15 10:21:00,
2013-05-15 06:36:00,62.0,47.0,30.08,NE,43,2.0,5.0,59,0.00,,,0.00,weatherlink.com 1.10,2013-05-15 10:36:00,
2013-05-15 06:51:00,61.8,47.0,30.09,East,79,0.0,5.0,58,0.00,,,0.00,weatherlink.com 1.10,2013-05-15 10:51:00,
2013-05-15 07:21:00,62.3,48.0,30.09,NE,50,1.0,5.0,59,0.00,,,0.00,weatherlink.com 1.10,2013-05-15 11:21:00,
2013-05-15 07:51:00,62.2,48.0,30.10,SSW,209,0.0,8.0,60,0.00,,,0.00,weatherlink.com 1.10,2013-05-15 11:51:00,
2013-05-15 08:06:00,63.1,49.0,30.10,South,184,2.0,7.0,60,0.00,,,0.00,weatherlink.com 1.10,2013-05-15 12:06:00,
2013-05-15 08:21:00,63.8,49.0,30.10,SSE,167,3.0,10.0,58,0.00,,,0.00,weatherlink.com 1.10,2013-05-15 12:21:00,
2013-05-15 08:36:00,64.5,49.0,30.11,SSW,210,2.0,8.0,58,0.00,,,0.00,weatherlink.com 1.10,2013-05-15 12:36:00,
2013-05-15 08:51:00,65.1,49.0,30.12,South,179,0.0,8.0,57,0.00,,,0.00,weatherlink.com 1.10,2013-05-15 12:51:00,
2013-05-15 09:06:00,65.6,49.0,30.12,SE,139,3.0,7.0,56,0.00,,,0.00,weatherlink.com 1.10,2013-05-15 13:06:00,
2013-05-15 09:21:00,66.9,50.0,30.12,ESE,113,0.0,5.0,55,0.00,,,0.00,weatherlink.com 1.10,2013-05-15 13:21:00,
2013-05-15 09:36:00,67.6,50.0,30.12,North,8,1.0,6.0,53,0.00,,,0.00,weatherlink.com 1.10,2013-05-15 13:36:00,
2013-05-15 09:51:00,68.6,50.0,30.12,ESE,106,0.0,5.0,51,0.00,,,0.00,weatherlink.com 1.10,2013-05-15 13:51:00,
2013-05-15 10:06:00,69.7,51.0,30.12,South,181,0.0,6.0,51,0.00,,,0.00,weatherlink.com 1.10,2013-05-15 14:06:00,
2013-05-15 10:21:00,70.3,51.0,30.12,SSW,193,0.0,3.0,50,0.00,,,0.00,weatherlink.com 1.10,2013-05-15 14:21:00,
2013-05-15 10:36:00,70.4,51.0,30.11,South,189,1.0,6.0,50,0.00,,,0.00,weatherlink.com 1.10,2013-05-15 14:36:00,
2013-05-15 10:51:00,70.9,50.0,30.11,SSW,210,1.0,13.0,48,0.00,,,0.00,weatherlink.com 1.10,2013-05-15 14:51:00,
2013-05-15 11:07:00,71.8,51.0,30.11,SSW,203,0.0,4.0,49,0.00,,,0.00,weatherlink.com 1.10,2013-05-15 15:07:00,
2013-05-15 11:22:00,72.5,50.0,30.11,SSW,193,0.0,7.0,45,0.00,,,0.00,weatherlink.com 1.10,2013-05-15 15:22:00,
2013-05-15 11:37:00,73.5,49.0,30.11,SSE,147,1.0,11.0,42,0.00,,,0.00,weatherlink.com 1.10,2013-05-15 15:37:00,
2013-05-15 11:52:00,73.7,48.0,30.11,SSW,211,1.0,9.0,40,0.00,,,0.00,weatherlink.com 1.10,2013-05-15 15:52:00,
2013-05-15 12:07:00,74.2,47.0,30.11,ENE,58,9.0,9.0,38,0.00,,,0.00,weatherlink.com 1.10,2013-05-15 16:07:00,
2013-05-15 12:22:00,75.4,47.0,30.09,SSW,193,6.0,9.0,37,0.00,,,0.00,weatherlink.com 1.10,2013-05-15 16:22:00,
2013-05-15 12:37:00,76.0,46.0,30.09,SSE,151,0.0,6.0,35,0.00,,,0.00,weatherlink.com 1.10,2013-05-15 16:37:00,
2013-05-15 12:52:00,77.3,46.0,30.08,East,93,2.0,8.0,33,0.00,,,0.00,weatherlink.com 1.10,2013-05-15 16:52:00,
2013-05-15 13:07:00,77.5,45.0,30.08,ESE,115,1.0,7.0,32,0.00,,,0.00,weatherlink.com 1.10,2013-05-15 17:07:00,
2013-05-15 13:37:00,75.1,50.0,30.07,SW,226,4.0,7.0,41,0.00,,,0.00,weatherlink.com 1.10,2013-05-15 17:37:00,
2013-05-15 13:52:00,75.6,49.0,30.06,WSW,251,4.0,7.0,39,0.00,,,0.00,weatherlink.com 1.10,2013-05-15 17:52:00,
2013-05-15 14:07:00,76.1,50.0,30.06,NW,306,2.0,7.0,40,0.00,,,0.00,weatherlink.com 1.10,2013-05-15 18:07:00,
2013-05-15 14:37:00,76.3,51.0,30.06,West,262,4.0,9.0,41,0.00,,,0.00,weatherlink.com 1.10,2013-05-15 18:37:00,
2013-05-15 15:07:00,76.6,50.0,30.04,WNW,303,3.0,6.0,39,0.00,,,0.00,weatherlink.com 1.10,2013-05-15 19:07:00,
2013-05-15 15:22:00,76.1,49.0,30.04,WSW,252,2.0,9.0,38,0.00,,,0.00,weatherlink.com 1.10,2013-05-15 19:22:00,
2013-05-15 15:37:00,76.6,48.0,30.04,WSW,247,6.0,6.0,37,0.00,,,0.00,weatherlink.com 1.10,2013-05-15 19:37:00,
2013-05-15 15:52:00,75.5,48.0,30.03,NNW,346,0.0,7.0,38,0.00,,,0.00,weatherlink.com 1.10,2013-05-15 19:52:00,
2013-05-15 16:22:00,76.4,49.0,30.03,WSW,255,3.0,6.0,38,0.00,,,0.00,weatherlink.com 1.10,2013-05-15 20:22:00,
2013-05-15 16:37:00,76.7,50.0,30.02,WSW,245,4.0,4.0,39,0.00,,,0.00,weatherlink.com 1.10,2013-05-15 20:37:00,
2013-05-15 16:52:00,76.7,49.0,30.02,SW,226,2.0,4.0,38,0.00,,,0.00,weatherlink.com 1.10,2013-05-15 20:52:00,
2013-05-15 17:07:00,76.3,47.0,30.02,South,185,3.0,5.0,35,0.00,,,0.00,weatherlink.com 1.10,2013-05-15 21:07:00,
2013-05-15 17:22:00,76.3,48.0,30.02,SSW,210,5.0,6.0,37,0.00,,,0.00,weatherlink.com 1.10,2013-05-15 21:22:00,
2013-05-15 18:08:00,75.3,43.0,30.01,SSW,200,2.0,6.0,32,0.00,,,0.00,weatherlink.com 1.10,2013-05-15 22:08:00,
2013-05-15 18:23:00,74.5,43.0,30.02,SW,218,3.0,7.0,33,0.00,,,0.00,weatherlink.com 1.10,2013-05-15 22:23:00,
2013-05-15 18:38:00,74.1,41.0,30.01,WNW,300,4.0,5.0,30,0.00,,,0.00,weatherlink.com 1.10,2013-05-15 22:38:00,
2013-05-15 18:53:00,73.7,40.0,30.01,NNE,16,1.0,5.0,30,0.00,,,0.00,weatherlink.com 1.10,2013-05-15 22:53:00,
2013-05-15 19:08:00,73.4,40.0,30.01,WSW,237,1.0,6.0,30,0.00,,,0.00,weatherlink.com 1.10,2013-05-15 23:08:00,
2013-05-15 19:23:00,72.9,40.0,30.01,SW,217,1.0,4.0,30,0.00,,,0.00,weatherlink.com 1.10,2013-05-15 23:23:00,
2013-05-15 19:38:00,72.3,39.0,30.01,NW,305,0.0,6.0,30,0.00,,,0.00,weatherlink.com 1.10,2013-05-15 23:38:00,
2013-05-15 19:53:00,71.7,40.0,30.01,East,82,0.0,3.0,32,0.00,,,0.00,weatherlink.com 1.10,2013-05-15 23:53:00,
2013-05-15 20:08:00,71.3,40.0,30.02,SSE,160,0.0,5.0,32,0.00,,,0.00,weatherlink.com 1.10,2013-05-16 00:08:00,
2013-05-15 20:23:00,70.0,41.0,30.02,ENE,62,2.0,4.0,35,0.00,,,0.00,weatherlink.com 1.10,2013-05-16 00:23:00,
2013-05-15 20:38:00,69.5,41.0,30.02,WSW,241,0.0,2.0,35,0.00,,,0.00,weatherlink.com 1.10,2013-05-16 00:38:00,
2013-05-15 20:53:00,68.4,44.0,30.02,NE,39,1.0,7.0,42,0.00,,,0.00,weatherlink.com 1.10,2013-05-16 00:53:00,
2013-05-15 21:08:00,68.2,44.0,30.02,NE,52,3.0,4.0,42,0.00,,,0.00,weatherlink.com 1.10,2013-05-16 01:08:00,
2013-05-15 21:38:00,66.8,45.0,30.02,NNE,33,2.0,3.0,46,0.00,,,0.00,weatherlink.com 1.10,2013-05-16 01:38:00,
2013-05-15 21:53:00,66.1,45.0,30.02,NNE,16,2.0,4.0,47,0.00,,,0.00,weatherlink.com 1.10,2013-05-16 01:53:00,
2013-05-15 22:08:00,65.6,45.0,30.03,NNE,28,3.0,3.0,48,0.00,,,0.00,weatherlink.com 1.10,2013-05-16 02:08:00,
2013-05-15 22:38:00,64.8,46.0,30.03,NNE,20,3.0,4.0,50,0.00,,,0.00,weatherlink.com 1.10,2013-05-16 02:38:00,
2013-05-15 22:53:00,65.4,46.0,30.03,SSE,167,1.0,6.0,49,0.00,,,0.00,weatherlink.com 1.10,2013-05-16 02:53:00,
2013-05-15 23:08:00,65.1,47.0,30.03,NE,56,2.0,4.0,52,0.00,,,0.00,weatherlink.com 1.10,2013-05-16 03:08:00,
2013-05-15 23:23:00,65.2,47.0,30.03,ENE,76,0.0,3.0,53,0.00,,,0.00,weatherlink.com 1.10,2013-05-16 03:23:00,
2013-05-15 23:53:00,64.9,49.0,30.03,NE,55,2.0,5.0,56,0.00,,,0.00,weatherlink.com 1.10,2013-05-16 03:53:00,